Tracking 18984 objects as of 24-Feb-2018
HD Live streaming from Space Station
objects crossing your sky now

FENGYUN 1C DEB

Track FENGYUN 1C DEB now!
10-day predictions


NORAD ID: 29929
Int'l Code: 1999-025JB
Perigee: 823.9 km
Apogee: 1,039.7 km
Inclination: 98.6 °
Period: 103.5 minutes
Semi major axis: 7302 km
RCS: 0.0297 m2 (small)
Launch date: May 10, 1999
Source: People's Republic of China (PRC)
Launch site: Taiyaun Space Center, China (TSC)

Note: This is SATELLITE DEBRIS
aabbcc
Your satellite tracking list
Your tracking list is empty




NASA's NSSDC Master Catalog

Two Line Element Set (TLE):
1 29929U 99025JB  18054.21239816  .00000152  00000-0  13883-3 0  9990
2 29929  98.6181 136.7428 0147752 150.5456 272.7381 13.91145289562690
Source of the keplerian elements: AFSPC